Weather History for Clinton, MO

Change the Weather History Date:

Friday, November 4, 2011

  Actual Average (KSZL) Record (KSZL)
Temperature  
Mean Temperature 44 °F -  
Max Temperature 57 °F 56 °F 73 °F (2005)
Min Temperature 32 °F 39 °F 24 °F (1997)
Degree Days  
Heating Degree Days 20    
Moisture  
Dew Point 38 °F    
Average Humidity 79    
Maximum Humidity 93    
Minimum Humidity 59    
Precipitation  
Precipitation 0.00 in - - ()
Sea Level Pressure  
Sea Level Pressure 30.21 in    
Wind  
Wind Speed 4 mph (East)    
Max Wind Speed 8 mph    
Max Gust Speed -    
Visibility 9 miles    
Events      
Averages and records for this station are not official NWS values.
T = Trace of Precipitation, MM = Missing Value Source: NWS Daily Summary

Daily Weather History Graph

Daily Weather History Graph

Search for Another Location

Airport:

Trip Planner

Search our weather history database for the weather conditions in past years. The results will help you decide how hot, cold, wet, or windy it might be!

Date:

Astronomy

Nov. 04, 2011 Rise Set
Actual Time 7:43 AM CDT 6:12 PM CDT
Civil Twilight 7:16 AM CDT 6:39 PM CDT
Nautical Twilight 6:45 AM CDT 7:11 PM CDT
Astronomical Twilight 6:14 AM CDT 7:41 PM CDT
Moon 3:00 PM CDT (11/4) 2:01 AM CDT (11/4)
Length of Visible Light 11h 23m
Length of Day
10h 28m
Waxing Gibbous, 69% of the Moon is Illuminated
Nov 4
Waxing Gibbous
Nov 10
Full
Nov 18
Last Quarter
Nov 25
New
Dec 2
First Quarter

Hourly Weather History & Observations

Time (CDT) Temp. Windchill Dew Point Humidity Pressure Visibility Wind Dir Wind Speed Gust Speed Precip Events Conditions
12:15 AM 42.8 °F 40.1 °F 32.0 °F 66% 30.25 in 10.0 mi North 4.6 mph - N/A   Clear
12:35 AM 42.8 °F - 32.0 °F 66% 30.24 in 10.0 mi Calm Calm - N/A   Clear
1:15 AM 39.2 °F 35.9 °F 32.0 °F 75% 30.25 in 10.0 mi WNW 4.6 mph - N/A   Clear
1:35 AM 37.4 °F 32.8 °F 32.0 °F 81% 30.25 in 10.0 mi NW 5.8 mph - N/A   Clear
2:15 AM 37.4 °F 32.1 °F 32.0 °F 81% 30.26 in 10.0 mi NW 6.9 mph - N/A   Scattered Clouds
2:35 AM 37.4 °F 32.8 °F 32.0 °F 81% 30.26 in 10.0 mi NNW 5.8 mph - N/A   Clear
2:55 AM 37.4 °F 32.8 °F 32.0 °F 81% 30.25 in 10.0 mi NNW 5.8 mph - N/A   Clear
3:35 AM 35.6 °F 32.8 °F 32.0 °F 87% 30.24 in 10.0 mi North 3.5 mph - N/A   Clear
3:55 AM 35.6 °F 31.7 °F 32.0 °F 87% 30.24 in 10.0 mi NNE 4.6 mph - N/A   Clear
4:15 AM 35.6 °F - 32.0 °F 87% 30.24 in 10.0 mi Calm Calm - N/A   Clear
4:35 AM 33.8 °F - 32.0 °F 93% 30.24 in 10.0 mi Calm Calm - N/A   Clear
4:55 AM 35.6 °F 32.8 °F 32.0 °F 87% 30.24 in 10.0 mi NNE 3.5 mph - N/A   Clear
5:15 AM 33.8 °F - 32.0 °F 93% 30.25 in 10.0 mi Calm Calm - N/A   Clear
5:35 AM 35.6 °F 32.8 °F 30.2 °F 81% 30.26 in 10.0 mi NNE 3.5 mph - N/A   Clear
5:55 AM 33.8 °F 27.7 °F 30.2 °F 87% 30.25 in 10.0 mi NE 6.9 mph - N/A   Clear
6:55 AM 32.0 °F - 30.2 °F 93% 30.26 in 10.0 mi Calm Calm - N/A   Clear
7:15 AM 32.0 °F - 30.2 °F 93% 30.26 in 10.0 mi Calm Calm - N/A   Clear
7:35 AM 32.0 °F 25.6 °F 30.2 °F 93% 30.25 in 10.0 mi East 6.9 mph - N/A   Clear
7:55 AM 33.8 °F 28.6 °F 32.0 °F 93% 30.26 in 10.0 mi East 5.8 mph - N/A   Clear
8:15 AM 33.8 °F - 32.0 °F 93% 30.27 in 10.0 mi Calm Calm - N/A   Clear
8:35 AM 33.8 °F - 32.0 °F 93% 30.28 in 9.0 mi Calm Calm - N/A   Clear
8:55 AM 35.6 °F - 32.0 °F 87% 30.27 in 10.0 mi Calm Calm - N/A   Clear
9:15 AM 37.4 °F 34.9 °F 33.8 °F 87% 30.28 in 9.0 mi NNE 3.5 mph - N/A   Clear
9:35 AM 39.2 °F - 33.8 °F 81% 30.30 in 9.0 mi Calm Calm - N/A   Mostly Cloudy
9:55 AM 39.2 °F - 35.6 °F 87% 30.30 in 9.0 mi Calm Calm - N/A   Overcast
10:35 AM 42.8 °F 41.1 °F 37.4 °F 81% 30.29 in 7.0 mi ENE 3.5 mph - N/A   Overcast
10:55 AM 44.6 °F 42.2 °F 39.2 °F 81% 30.29 in 7.0 mi East 4.6 mph - N/A   Overcast
11:15 AM 44.6 °F 41.4 °F 39.2 °F 81% 30.29 in 6.0 mi ESE 5.8 mph - N/A   Haze
11:35 AM 46.4 °F 42.9 °F 39.2 °F 76% 30.28 in 7.0 mi East 6.9 mph - N/A   Overcast
11:55 AM 46.4 °F 42.4 °F 39.2 °F 76% 30.27 in 7.0 mi ESE 8.1 mph - N/A   Mostly Cloudy
12:15 PM 48.2 °F - 41.0 °F 76% 30.27 in 7.0 mi East 5.8 mph - N/A   Mostly Cloudy
12:35 PM 48.2 °F - 41.0 °F 76% 30.26 in 8.0 mi SE 5.8 mph - N/A   Partly Cloudy
12:55 PM 50.0 °F - 41.0 °F 71% 30.26 in 8.0 mi SE 4.6 mph - N/A   Clear
1:15 PM 51.8 °F - 42.8 °F 71% 30.24 in 8.0 mi ESE 6.9 mph - N/A   Clear
1:55 PM 53.6 °F - 42.8 °F 67% 30.22 in 8.0 mi SE 6.9 mph - N/A   Clear
2:15 PM 53.6 °F - 42.8 °F 67% 30.21 in 8.0 mi ENE 4.6 mph - N/A   Clear
2:35 PM 55.4 °F - 42.8 °F 63% 30.20 in 8.0 mi East 5.8 mph - N/A   Clear
2:55 PM 55.4 °F - 42.8 °F 63% 30.19 in 9.0 mi SE 5.8 mph - N/A   Clear
3:15 PM 55.4 °F - 42.8 °F 63% 30.19 in 8.0 mi Calm Calm - N/A   Clear
3:35 PM 55.4 °F - 42.8 °F 63% 30.18 in 8.0 mi SE 4.6 mph - N/A   Clear
3:55 PM 57.2 °F - 42.8 °F 59% 30.17 in 8.0 mi ESE 5.8 mph - N/A   Clear
4:15 PM 57.2 °F - 42.8 °F 59% 30.17 in 9.0 mi SE 4.6 mph - N/A   Clear
4:35 PM 57.2 °F - 42.8 °F 59% 30.16 in 8.0 mi SE 5.8 mph - N/A   Clear
4:55 PM 57.2 °F - 42.8 °F 59% 30.16 in 9.0 mi ESE 5.8 mph - N/A   Clear
5:15 PM 57.2 °F - 42.8 °F 59% 30.15 in 8.0 mi East 4.6 mph - N/A   Clear
5:35 PM 55.4 °F - 42.8 °F 63% 30.15 in 9.0 mi East 5.8 mph - N/A   Clear
5:55 PM 55.4 °F - 44.6 °F 67% 30.14 in 8.0 mi East 4.6 mph - N/A   Clear
6:15 PM 53.6 °F - 42.8 °F 67% 30.14 in 10.0 mi East 4.6 mph - N/A   Clear
6:35 PM 51.8 °F - 42.8 °F 71% 30.14 in 9.0 mi Calm Calm - N/A   Clear
6:55 PM 50.0 °F - 42.8 °F 76% 30.14 in 9.0 mi Calm Calm - N/A   Clear
7:35 PM 48.2 °F - 42.8 °F 82% 30.15 in 9.0 mi Calm Calm - N/A   Clear
7:55 PM 48.2 °F - 42.8 °F 82% 30.15 in 9.0 mi ESE 3.5 mph - N/A   Clear
8:15 PM 48.2 °F - 42.8 °F 82% 30.14 in 9.0 mi ESE 5.8 mph - N/A   Clear
8:35 PM 48.2 °F - 42.8 °F 82% 30.14 in 9.0 mi ESE 4.6 mph - N/A   Clear
8:55 PM 48.2 °F - 42.8 °F 82% 30.13 in 8.0 mi East 5.8 mph - N/A   Clear
9:15 PM 48.2 °F - 42.8 °F 82% 30.13 in 9.0 mi East 5.8 mph - N/A   Clear
9:35 PM 46.4 °F 44.3 °F 42.8 °F 87% 30.13 in 8.0 mi ESE 4.6 mph - N/A   Clear
9:55 PM 46.4 °F 43.5 °F 42.8 °F 87% 30.14 in 8.0 mi ESE 5.8 mph - N/A   Clear
10:15 PM 46.4 °F 45.2 °F 42.8 °F 87% 30.14 in 8.0 mi ESE 3.5 mph - N/A   Clear
10:35 PM 46.4 °F 42.9 °F 42.8 °F 87% 30.13 in 9.0 mi ESE 6.9 mph - N/A   Clear
10:55 PM 46.4 °F 44.3 °F 42.8 °F 87% 30.13 in 8.0 mi ESE 4.6 mph - N/A   Clear
11:15 PM 46.4 °F 44.3 °F 42.8 °F 87% 30.13 in 9.0 mi SE 4.6 mph - N/A   Clear
11:35 PM 46.4 °F 44.3 °F 42.8 °F 87% 30.13 in 9.0 mi SE 4.6 mph - N/A   Clear
11:55 PM 46.4 °F 43.5 °F 42.8 °F 87% 30.12 in 10.0 mi SSE 5.8 mph - N/A   Clear